Probability
0 0 0 0 0 0 0 0 0 0 0 0 0 0 0 0 0 0 0 0 0 0 0 0 0 0 0 0 0 0 0 0 0 0 0 0 0 0 0 0 0 0 0 0
0 0 0 0 0 0 0 0 0 0 0 0 0 0 0 0 0 0 0 0 0 0 0 0 0 0 0 0 0 0 0 0 0 0 0 0 0 0 0 0 0 0 0 0
0 0 0 0 0 0 0 0 0 0 0 0 0 0 0 0 0 0 0 0 0 0 0 0 0 0 0 0 0 0 0 0 0 0 0 0 0 0 0 0 0 0 0 0
0 0 0 0 0 0 0 0 0 0 0 0 0 0 0 0 0 0 0 0 0 0 0 0 0 0 0 0 0 0 0 0 0 0 0 0 0 0 0 0 0 0 0 0
0 0 0 0 0 0 0 0 0 0 0 0 0 0 0 0 0 0 0 0 0 0 0 0 0 0 0 0 0 0 0 0 0 0 0 0 0 0 0 0 0 0 0 0
0 0 0 0 0 0 0 0 0 0 0 0 0 0 0 0 0 0 0 0 0 0 0 0 0 0 0 0 0 0 0 0 0 0 0 0 0 0 0 0 0 0 0 0
0 0 0 0 0 0 0 0 0 0 0 0 0 0 0 0 0 0 0 0 0 0 0 0 0 0 0 0 0 0 0 0 0 0 0 0 0 0 0 0 0 0 0 0
0 0 0 0 0 0 0 0 0 0 0 0 0 0 0 0 0 0 0 0 0 0 0 0 0 0 0 0 0 0 0 0 0 0 0 0 0 0 0 0 0 0 0 0
0 0 0 0 0 0 0 0 0 0 0 0 0 0 0 0 0 0 0 0 0 0 0 0 0 0 0 0 0 0 0 0 0 0 0 0 0 0 0 0 0 0 0 0
0 0 0 0 0 0 0 0 0 0 0 0 0 0 0 0 0 0 0 0 0 0 0 0 0 0 0 0 0 0 0 0 0 0 0 0 0 0 0 0 0 0 0 0
0 0 0 0 0 0 0 0 0 0 0 0 0 0 0 0 0 0 0 0 0 0 0 0 0 0 0 0 0 0 0 0 0 0 0 0 0 0 0 0 0 0 0 0
0 0 0 0 0 0 0 0 0 0 0 0 0 0 0 0 0 0 0 0 0 0 0 0 0 0 0 0 0 0 0 0 0 0 0 0 0 0 0 0 0 0 0 0
0 0 0 0 0 0 0 0 0 0 0 0 0 0 0 0 0 0 0 0 0 0 0 0 0 0 0 0 0 0 0 0 0 0 0 0 0 0 0 0 0 0 0 0
0 0 0 0 0 0 0 0 0 0 0 0 0 0 0 0 0 0 0 0 0 0 0 0 0 0 0 0 0 0 0 0 0 0 0 0 0 0 0 0 0 0 0 0
0 0 0 0 0 0 0 0 0 0 0 0 0 0 0 0 0 0 0 0 0 0 0 0 0 0 0 0 0 0 0 0 0 0 0 0 0 0 0 0 0 0 0 0
0 0 0 0 0 0 0 0 0 0 0 0 0 0 0 0 0 0 0 0 0 0 0 0 0 0 0 0 0 0 0 0 0 0 0 0 0 0 0 0 0 0 0 0
0 0 0 0 0 0 0 0 0 0 0 0 0 0 0 0 0 0 0 0 0 0 0 0 0 0 0 0 0 0 0 0 0 0 0 0 0 0 0 0 0 0 0 0
0 0 0 0 0 0 0 0 0 0 0 0 0 0 0 0 0 0 0 0 0 0 0 0 0 0 0 0 0 0 0 0 0 0 0 0 0 0 0 0 0 0 0 0
0 0 0 0 0 0 0 0 0 0 0 0 0 0 0 0 0 0 0 0 0 0 0 0 0 0 0 0 0 0 0 0 0 0 0 0 0 0 0 0 0 0 0 0
0 0 0 0 0 0 0 0 0 0 0 0 0 0 0 0 0 0 0 0 0 0 0 0 0 0 0 0 0 0 0 0 0 0 0 0 0 0 0 0 0 0 0 0
0 0 0 0 0 0 0 0 0 0 0 0 0 0 0 0 0 0 0 0 0 0 0 0 0 0 0 0 0 0 0 0 0 0 0 0 0 0 0 0 0 0 0 0
0 0 0 0 0 0 0 0 0 0 0 0 0 0 0 0 0 0 0 0 0 0 0 0 0 0 0 0 0 0 0 0 0 0 0 0 0 0 0 0 0 0 0 0
0 0 0 0 0 0 0 0 0 0 0 0 0 0 0 0 0 0 0 0 0 0 0 0 0 0 0 0 0 0 0 0 0 0 0 0 0 0 0 0 0 0 0 0
0 0 0 0 0 0 0 0 0 0 0 0 0 0 0 0 0 0 0 0 0 0 0 0 0 0 0 0 0 0 0 0 0 0 0 0 0 0 0 0 0 0 0 0
0 0 0 0 0 0 0 0 0 0 0 0 0 0 0 0 0 0 0 0 0 0 0 0 0 0 0 0 0 0 0 0 0 0 0 0 0 0 0 0 0 0 0 0
0 0 0 0 0 0 0 0 0 0 0 0 0 0 0 0 0 0 0 0 0 0 0 0 0 0 0 0 0 0 0 0 0 0 0 0 0 0 0 0 0 0 0 0
0 0 0 0 0 0 0 0 0 0 0 0 0 0 0 0 0 0 0 0 0 0 0 0 0 0 0 0 0 0 0 0 0 0 0 0 0 0 0 0 0 0 0 0
Wind_Speed
7 6 5 6 7 8 10 9 8 8 7 5 3 2 2 2 2 2 2 2 1 1 0 0 0 0 1 1 1 1 2 2 3 3 3 3 3 3 4 4 5 4 5 5
6 6 6 9 9 10 11 10 11 10 10 4 2 0 0 1 2 2 1 1 1 0 1 1 1 1 1 1 1 2 2 3 3 3 3 3 4 4 4 4 5 5 5 5
5 3 4 9 9 10 7 6 7 10 8 2 1 1 2 1 2 2 1 1 0 1 2 2 1 1 1 2 2 2 3 3 3 3 3 4 4 4 4 4 5 5 5 5
3 2 9 6 1 3 5 4 4 3 2 1 1 1 1 0 1 1 0 1 1 1 1 1 1 1 1 2 2 3 3 3 3 3 4 4 4 4 4 4 5 5 6 6
3 5 8 3 0 1 3 4 2 3 2 1 2 2 2 2 3 1 1 1 1 1 1 1 1 1 1 2 2 3 3 3 3 3 4 5 5 5 5 5 5 6 6 6
4 5 7 2 1 1 2 3 2 0 1 0 1 1 2 2 2 2 2 1 1 1 1 1 1 1 1 3 3 3 4 4 4 4 5 5 5 5 5 5 6 6 7 6
6 7 6 2 1 2 2 4 2 0 0 1 1 2 1 1 2 1 2 2 2 1 1 2 1 1 2 3 4 4 4 4 4 4 5 5 5 4 4 5 5 5 6 6
4 6 7 1 2 2 3 2 2 1 1 0 1 1 1 2 2 2 2 2 2 2 2 2 1 1 3 4 4 3 4 4 5 5 5 5 4 4 4 4 5 5 5 6
6 5 1 3 3 1 1 1 2 2 1 1 1 1 2 2 2 2 2 2 2 2 3 2 2 1 3 4 3 3 4 4 5 5 5 5 4 4 4 4 4 5 4 5
3 4 1 1 1 1 1 1 2 1 1 0 1 1 2 2 2 2 2 3 2 2 3 3 3 3 3 3 3 3 4 5 5 4 4 4 4 4 4 3 4 5 5 5
4 4 3 2 1 2 2 1 1 2 2 1 1 2 2 2 2 2 3 3 3 3 3 4 4 4 4 3 3 3 4 4 4 4 4 4 4 4 5 4 5 6 5 5
5 3 3 4 2 1 1 1 1 1 2 2 1 1 2 2 2 2 3 3 3 3 4 4 4 4 4 3 2 3 4 4 4 4 4 4 4 5 7 7 10 11 10 9
3 2 2 2 1 1 1 1 1 1 1 2 1 1 2 2 3 3 3 3 3 4 4 4 4 4 4 3 3 3 4 4 4 4 4 4 4 4 5 6 9 10 11 11
1 1 1 1 2 1 1 1 1 1 1 1 1 2 2 2 3 3 4 4 4 4 4 4 4 4 4 3 3 3 4 5 5 4 4 4 4 4 4 5 6 5 7 10
2 2 2 1 1 1 1 2 2 2 2 2 2 2 2 3 4 4 4 4 4 4 4 4 4 5 4 3 3 4 4 3 3 3 4 4 4 4 4 4 5 5 5 7
2 2 1 1 1 1 1 1 1 2 2 3 3 3 3 3 4 4 4 4 4 5 5 5 5 4 3 3 3 3 3 7 6 4 4 4 4 4 4 4 4 4 5 5
1 1 1 2 2 2 2 2 2 3 3 3 4 4 4 4 4 4 4 4 4 5 5 5 5 4 3 3 3 3 3 4 7 5 3 3 4 4 4 4 4 4 5 7
1 2 1 2 2 3 3 3 2 3 3 4 4 3 3 4 5 5 5 4 4 5 5 4 4 4 3 3 3 3 3 3 3 3 3 3 4 3 3 4 4 5 5 6
2 2 1 1 1 2 2 3 3 3 3 3 3 4 4 4 4 4 4 4 4 5 4 3 6 4 3 4 4 2 2 3 3 3 3 5 5 4 4 4 4 4 5 5
4 3 3 2 2 1 2 2 2 3 3 3 3 3 4 4 4 4 4 4 4 4 3 4 4 3 3 3 5 2 2 2 3 3 3 3 3 4 4 4 4 5 5 5
4 4 3 3 3 3 2 2 2 3 3 3 3 4 4 4 3 3 3 4 4 3 3 5 3 3 3 3 4 2 2 2 3 3 3 3 4 4 4 4 5 5 5 5
4 3 3 3 3 3 3 2 2 3 3 3 4 3 3 4 3 3 3 3 3 5 4 3 2 4 5 5 2 2 2 2 3 3 3 3 4 4 4 5 5 5 5 5
3 3 3 3 3 3 3 3 3 3 3 4 4 3 3 3 3 3 4 3 2 5 4 3 5 7 8 4 2 2 2 2 3 3 4 4 4 4 4 5 5 5 5 5
3 4 4 3 2 2 3 3 3 3 3 3 3 3 3 3 3 2 3 5 6 7 4 5 8 8 7 3 2 2 2 3 3 3 4 4 4 4 4 5 5 5 5 6
3 3 3 3 2 2 3 3 3 3 3 3 3 3 3 2 3 3 3 3 6 6 4 5 8 8 5 3 2 3 3 3 4 4 3 4 4 4 4 5 5 5 5 5
3 3 3 3 2 2 2 2 2 3 3 3 3 3 3 2 2 3 3 3 4 6 4 3 4 5 3 3 3 3 3 4 5 4 4 4 5 5 5 5 6 5 5 6
3 3 2 2 2 2 2 2 2 3 3 3 4 4 3 3 3 3 3 3 3 3 3 3 3 3 3 3 3 4 3 3 4 4 4 4 4 5 5 6 5 5 5 6
Wind_Direction
270 283 270 257 243 216 216 227 236 254 259 262 236 225 208 183 174 165 164 167 164 171 242 308 301 248 237 255 266 273 267 261 261 269 273 280 284 287 291 295 298 294 293 294
271 260 257 264 253 236 233 237 246 265 272 274 271 359 198 179 173 191 201 186 176 247 281 274 282 282 279 273 283 277 266 261 267 271 275 278 280 284 291 292 291 290 288 288
264 267 290 260 235 222 221 218 218 242 251 255 275 237 214 217 203 201 200 218 227 249 261 265 259 278 279 282 290 280 275 271 266 272 280 281 287 289 286 288 291 288 286 284
265 296 247 245 188 197 210 227 229 240 270 253 265 276 305 8 116 95 33 309 263 249 260 272 263 273 285 298 289 279 281 282 288 284 282 284 282 281 282 282 283 281 281 279
231 253 267 264 274 159 200 256 240 236 269 341 19 354 351 50 66 63 10 323 280 244 256 254 259 277 300 294 288 285 288 291 292 293 289 283 281 280 281 280 281 280 281 279
229 248 259 260 12 17 113 260 332 199 228 337 38 288 269 23 37 21 3 355 335 336 338 304 285 279 275 281 281 280 286 293 293 289 285 282 275 275 277 280 283 289 291 285
236 251 260 319 342 76 169 263 341 52 162 123 247 256 279 352 5 8 359 350 354 350 322 298 292 268 270 276 277 287 298 298 295 291 285 280 277 275 275 281 283 280 283 284
208 231 249 58 102 168 233 323 354 11 39 57 318 336 348 354 354 355 351 346 347 337 313 309 304 277 280 281 290 301 300 296 293 290 291 295 286 284 279 278 280 280 282 287
204 221 176 139 161 192 25 319 329 340 355 71 323 307 320 327 332 338 336 328 330 315 309 307 299 274 278 291 301 300 295 293 294 296 295 297 288 287 287 283 286 293 291 293
263 265 280 204 204 347 348 303 320 337 3 351 278 288 298 306 317 322 323 321 324 317 312 312 313 304 287 296 297 291 291 296 299 298 299 299 297 292 289 285 286 292 296 297
259 280 309 231 237 295 320 359 19 18 7 326 262 286 288 295 296 297 307 310 307 300 297 303 311 303 301 299 296 294 294 297 303 304 302 299 298 288 290 273 278 288 285 285
243 243 243 273 290 324 341 337 5 11 343 329 274 269 290 293 290 294 302 307 307 302 300 303 305 302 301 296 289 290 300 303 302 302 302 304 304 307 302 302 305 306 306 305
256 301 297 300 351 30 6 319 319 302 275 294 301 291 291 297 302 303 300 298 294 293 294 295 296 297 301 300 299 291 293 298 300 303 305 305 305 306 309 315 313 314 316 316
295 359 319 313 319 348 14 359 7 0 341 326 314 311 303 302 303 297 293 288 290 293 291 288 292 295 299 299 298 298 298 298 302 298 298 299 299 299 299 306 313 315 318 318
342 333 267 293 25 24 30 36 18 344 338 328 318 302 296 297 295 292 292 294 298 295 291 292 293 294 298 297 299 297 297 295 294 293 294 297 300 301 300 302 305 309 315 317
336 359 23 42 9 3 17 6 325 302 307 308 305 299 297 294 293 293 292 290 288 287 288 288 287 292 299 296 299 299 293 299 306 303 302 306 305 302 302 303 305 307 309 313
339 309 310 305 303 304 297 291 283 284 291 289 291 298 301 300 297 293 292 288 282 281 282 283 290 300 299 291 288 289 291 294 304 308 303 304 306 302 300 299 301 304 305 308
278 272 262 258 268 282 291 298 297 293 289 288 295 297 291 286 284 288 292 297 299 296 290 290 295 300 292 286 288 287 290 292 296 299 304 307 309 309 306 303 303 304 306 309
359 352 335 314 291 268 271 282 287 291 294 295 290 285 282 280 282 288 295 299 295 294 294 293 301 306 296 290 302 290 289 293 300 304 307 309 318 320 316 311 306 304 304 308
360 357 356 349 343 321 292 293 294 295 293 290 287 287 288 288 289 292 294 287 276 273 285 297 303 300 295 288 301 293 290 294 298 303 307 308 309 311 311 310 311 310 310 310
350 351 350 346 339 332 314 302 294 293 297 291 280 280 285 291 292 290 292 296 297 297 303 309 315 305 299 296 301 300 296 296 299 301 304 305 305 307 308 308 309 310 311 312
338 338 336 337 335 328 323 314 300 296 301 299 294 289 291 293 298 297 281 275 293 312 320 310 308 301 305 312 314 305 304 304 303 302 301 301 300 302 304 306 306 306 308 308
332 329 327 326 321 315 320 322 315 302 293 288 287 288 288 290 294 297 303 302 307 314 321 307 304 309 316 326 317 306 305 304 301 298 298 298 298 298 299 301 301 302 303 304
336 333 328 326 327 332 326 323 321 315 308 299 293 293 294 302 306 295 292 309 317 319 321 312 316 318 324 327 313 306 302 299 296 294 296 297 298 298 296 296 298 300 300 301
330 325 327 332 331 320 319 325 327 325 326 323 324 322 312 301 298 307 313 311 312 319 319 317 320 323 327 317 309 302 299 292 292 295 293 295 296 297 297 296 295 296 297 298
326 320 315 310 311 313 315 318 319 321 325 326 327 328 328 327 319 312 313 314 311 313 315 311 313 318 316 310 305 301 297 301 305 305 300 298 297 296 296 297 296 294 294 294
330 330 332 334 334 329 325 320 316 317 320 319 322 327 330 330 326 322 320 317 314 312 310 312 314 313 310 307 304 302 300 299 298 297 298 297 296 295 295 295 293 292 292 293